[Date Prev][Date Next][Thread Prev][Thread Next] - [Date Index][Thread Index][Author Index]
2 Line ISS Keps 1-30
- Subject: [sarex] 2 Line ISS Keps 1-30
- From: "Dave Larsen PhD" <doc@xxxxxxxxxxx>
- Date: Wed, 30 Jan 2002 02:31:42 -0800
ISS
1 25544U 98067A 02030.21424769 .00077100 00000-0 96325-3 0 185
2 25544 51.6403 26.5611 0006623 13.3299 172.3865 15.59128901182505
----
Via the sarex mailing list at AMSAT.ORG courtesy of AMSAT-NA.
To unsubscribe, send "unsubscribe sarex" to Majordomo@amsat.org
AMSAT Home